Regional Weather Roundup
Issued by NWS

Home | Current Version | Previous Version | Graphics & Text | Print | Product List | Glossary On
Versions: 1 2 3 4 5 6 7 8 9 10 11 12 13 14 15 16 17 18 19 20 21 22 23 24 25 26 27 28 29 30 31 32 33 34 35 36 37 38 39 40 41 42 43 44 45 46 47 48 49 50
000
ASUS43 KMKX 131059
RWRWI

WISCONSIN REGIONAL WEATHER ROUNDUP
NATIONAL WEATHER SERVICE MILWAUKEE/SULLIVAN WI
500 AM CST WED DEC 13 2017

NOTE: "FAIR" INDICATES FEW OR NO CLOUDS BELOW 12,000 FEET WITH NO
SIGNIFICANT WEATHER AND/OR OBSTRUCTIONS TO VISIBILITY.

WIZ001-002-006>008-014>016-023>028-131200-
NORTHWEST WISCONSIN

CITY           SKY/WX    TMP DP  RH WIND       PRES   REMARKS
SUPERIOR ARPT  LGT SNOW  18  16  91 E8        29.47F VSB 1   WCI   8
ASHLAND        LGT SNOW  15  12  88 NE8       29.49F VSB 3/4 WCI   4
HAYWARD        LGT SNOW  18  13  80 S7        29.40F VSB 1   WCI   9
SIREN          FLURRIES  21  17  87 SE5       29.41F WCI  14
CUMBERLAND     CLOUDY    19  14  79 SE9       29.39F WCI   9
RICE LAKE      CLOUDY    21  16  83 SE10G17   29.42F WCI   9
CHETEK         CLOUDY    20  15  82 E8        29.41F WCI  10
LADYSMITH      LGT SNOW  19  15  84 SE12      29.44F WCI   6
EAU CLAIRE     NOT AVBL
MENOMONIE      CLOUDY    23  18  78 E9        29.41F WCI  13
NEW RICHMOND   CLOUDY    23  17  80 SE7       29.38F WCI  14
OSCEOLA        CLOUDY    24  19  82 E9        29.41F WCI  14
$$

WIZ003>005-009-010-017-018-131200-
NORTH CENTRAL WISCONSIN

CITY           SKY/WX    TMP DP  RH WIND       PRES   REMARKS
MANITOWISH WTR LGT SNOW  11  10  92 SE7       29.48F WCI   1
ARBOR VITAE    LGT SNOW  14  10  85 SE9       29.48F WCI   2
WOODRUFF       LGT SNOW  14  10  85 SE9       29.48F WCI   2
RHINELANDER    LGT SNOW  12   9  87 SE10      29.49F FOG     WCI  -1
EAGLE RIVER    CLOUDY    11   6  79 SE8       29.51F WCI   0
LAND O LAKES   LGT SNOW  11   7  85 SE9       29.53F VSB 1   WCI  -2
PHILLIPS       CLOUDY    14  11  89 SE8       29.47F WCI   2
TOMAHAWK       FLURRIES  13  10  87 SE3       29.49F
MEDFORD        FLURRIES  15  12  88 SE9G17    29.46F WCI   3
MERRILL        CLOUDY    13  10  87 SE10      29.52F WCI   0
$$

WIZ029-030-035-036-043>047-131200-
CENTRAL WISCONSIN

CITY           SKY/WX    TMP DP  RH WIND       PRES   REMARKS
WAUSAU         CLOUDY    14  10  84 SE9       29.51F WCI   2
MOSINEE        CLOUDY    16  12  86 E8        29.53F WCI   5
MARSHFIELD     FLURRIES  17  13  84 SE10      29.46F WCI   5
STEVENS POINT  CLOUDY    15  11  85 SE7       29.55F WCI   5
WAUPACA        CLOUDY    19  12  73 E8        29.61F WCI   9
WAUTOMA        CLOUDY    20  12  71 SE5       29.55F WCI  13
WISC RAPIDS    LGT SNOW  18  13  80 SE9       29.52F WCI   7
CAMP DOUGLAS   CLOUDY    22  15  72 SE10      29.46F WCI  11
$$

WIZ011>013-019>022-031-037>040-048>050-131200-
NORTHEAST WISCONSIN

CITY           SKY/WX    TMP DP  RH WIND       PRES   REMARKS
ANTIGO         FLURRIES  10   8  91 SE15      29.53F WCI  -6
SHAWANO        FLURRIES  17  12  81 SE7       29.64F WCI   7
OCONTO         CLOUDY    16   7  68 SE7       29.68F WCI   6
STURGEON BAY   FLURRIES  16  10  77 S3        29.68F
GREEN BAY      LGT SNOW  16  11  80 SE8       29.65F WCI   5
MANITOWOC      MIX PCPN  18  15  88 S3        29.66F FOG
APPLETON       CLOUDY    18  10  73 SE10      29.60F WCI   6
CLINTONVILLE   CLOUDY    16  10  79 E9        29.62  WCI   4
OSHKOSH        CLOUDY    19  11  70 SE12      29.58F WCI   7
$$

WIZ032>034-041-042-053>061-131200-
SOUTHWEST WISCONSIN

CITY           SKY/WX    TMP DP  RH WIND       PRES   REMARKS
LA CROSSE      CLOUDY    29  20  69 S14       29.42F WCI  18
SPARTA         CLOUDY    27  19  73 SE9       29.47F WCI  18
VIROQUA        CLOUDY    25  20  82 SE8       29.48F WCI  16
BOSCOBEL       CLOUDY    29  18  63 VRB3      29.51F
PRAIRIE DU CHI CLOUDY    31  20  63 SE6       29.51F WCI  25
PLATTEVILLE    CLOUDY    27  19  72 S15       29.55F WCI  15
$$

WIZ056-057-062-063-064-067-068-131200-
SOUTH CENTRAL WISCONSIN

CITY           SKY/WX    TMP DP  RH WIND       PRES   REMARKS
REEDSBURG      CLOUDY    25  14  63 SE5       29.53F WCI  19
BARABOO/DELLS  CLOUDY    25  14  63 SE9       29.53F WCI  15
LONE ROCK      NOT AVBL
MINERAL POINT  PTCLDY    27  18  69 SE10      29.53F WCI  17
MADISON        CLOUDY    25  13  60 S16       29.56F WCI  12
MIDDLETON      CLOUDY    27  15  59 S7        29.57F WCI  20
WATERTOWN      CLOUDY    22  13  67 SE7       29.62F WCI  14
MONROE         CLOUDY    25  14  63 S17       29.58F WCI  11
JANESVILLE     CLOUDY    28  14  54 S12       29.63F WCI  18
$$

WIZ051-052-058>065-066-070>072-131200-
SOUTHEAST WISCONSIN

CITY           SKY/WX    TMP DP  RH WIND       PRES   REMARKS
MILWAUKEE      CLOUDY    23  11  60 S10       29.68F WCI  12
WAUKESHA       CLOUDY    19  10  68 S9        29.68F WCI   9
MILWAUKEE/TIMM CLOUDY    21   9  58 S6        29.68F WCI  14
RACINE         CLOUDY    24  10  55 S10       29.70F WCI  14
BURLINGTON       N/A    N/A N/A N/A MISG        N/A
KENOSHA        CLOUDY    23  10  57 S10       29.69F WCI  12
FOND DU LAC    CLOUDY    21  10  62 SE13      29.59F WCI   9
SHEBOYGAN      CLOUDY    18  15  88 SE3       29.65F
WEST BEND      CLOUDY    19  10  68 SE7       29.65F WCI  10
JUNEAU         CLOUDY    21  11  65 SE12      29.62F WCI   9
$$

LSZ147-162-131200-
LAKE SUPERIOR

STATION/POSITION TIME  TEMP    WIND        PRES    WAVE
                       AIR SEA DIR/SP/G            HT/PER
                 (UTC) (F)     (DEG/KT/KT) (MB)    (FT/S)
DEVILS ISLAND    1000   21     100/ 17/ 19 1001.3F
SAXON HARBOR     1040   16                  999.3F
$$

LMZ867-665-643>646-131200-
LAKE MICHIGAN

STATION/POSITION TIME  TEMP    WIND        PRES    WAVE
                       AIR SEA DIR/SP/G            HT/PER
                 (UTC) (F)     (DEG/KT/KT) (MB)    (FT/S)
NORTHPORT PIER   1040   19     150/  4/  8 1005.8F
KEWAUNEE LAKESHO 1030   18     160/  8/ 12 1004.9F
SHEBOYGAN LAKESH 1000   21     160/ 15/ 18 1006.8F
PORT WASHINGTON  1040   26     180/ 13/ 18 1006.1F
MILWAUKEE LAKESH 1030   23     180/ 13/ 14   N/A
KENOSHA   LAKESH 1000   23     180/ 13/ 16 1006.4
$$

TC  - TEMPERATURE IN CELSIUS
VSB - VISIBILITY IN STATUTE MILES
WCI - WIND CHILL INDEX
HX  - HEAT INDEX





USA.gov is the U.S. government's official web portal to all federal, state and local government web resources and services.